CZ-3B DEB, 40162

Orbit data source: Space-Track

CZ-3B DEB, 40162 is space debris in HEO originally from a launch on Sat, 04 Sep 2010 UTC launched from the Xichang Space Center, China (XSC). Debris objects in space refer to the collection of defunct objects orbiting the Earth. Examples of debris include non-operational satellites, rocket bodies, and fragments generated from explosions, collisions, or faulty payload assembly.

Loading next visibility...
Identifier
40162, 2010-042P
Orbit
HEO
Country
Flag of CNCN / PRC
Related business
Manufacturer
CALT
Mission
Spacecraft
Bus & Motor
Unknown
Mass
Unknown
Launch date (UTC)
2010-09-04 (16 years ago)
Launch vehicle
Unknown
Launch site
Xichang Space Center, China (XSC)
Object type
Payload
Rocket body
Debris
Shape & HBR
Unknown shape, 0.2 m
Radar Cross Section
Medium (>0.1 m² and <1 m²)

Expand to show TLE details & history
Last TLE update: 4 days ago

TLE from 4 days ago
0 CZ-3B DEB
1 40162U 10042P   26132.64285644 -.00000217  00000-0  00000+0 0  9993
2 40162  26.8850 265.3762 7210599 342.1389   1.8667  1.92046973 87529
Epoch: 2026-05-12T15:25Z
TLE epoch observation values (Epoch: 2026-05-12T15:25:42.796Z)
Latitude
0.00005°
Longitude
163.47419°
Altitude
1,391.091 km
Speed
9.382 km/s
True Right ascension
17h 41m 16s
True Declination
0° 00' 00"
Sunlit
Object was in full shadow at epoch
Visualization orbit readout
Latitude
Unknown
Longitude
Unknown
Altitude
Unknown
Speed
Unknown
Apparent Right ascension
Unknown
Apparent Declination
Unknown
Sunlit
N/A
Visualization observer readout
Local Sidereal Time
19:26:29
Azimuth
Unknown
Elevation
Unknown
Doppler factor
Unknown
Orbital elements
Apogee altitude
40,681.27 km
Perigee altitude
1,248.998 km
Semi-major axis
27,343.271 km
Eccentricity
0.72106
Inclination
26.885°
RAAN
265.3762°
Arg. of periapsis
342.1389°
True anomaly
16.43196°
Mean anomaly
1.8667°
Eccentric anomaly
6.65349°
Mean motion
0.48003 °/min
Orbital period
749.95 mins
BSTAR
0
Loading maneuver chart data...
Computing Atmospheric mass density...
Loading historical data...
Loading historical data...
Loading historical data...
Loading historical data...
Loading historical data...
Loading historical data...
Loading historical data...

Documentation

Showing up to 5 results
|